N0LSD-13 Weather Reports


Display with metric or nautical units.
time (UTC)temp
F
wind
direction
speed
MPH
gust
MPH
rain 1hr
in
rain 24hr
in
rain mn
in
humidity
%
barometer
mb
20260509152004 58 208 3.0 9.0 0.00 0.00 0.00 76 986.3
20260509151005 58 183 3.0 9.0 0.00 0.00 0.00 78 986.4
20260509150004 58 230 3.0 8.0 0.00 0.00 0.00 78 986.5
20260509145005 57 215 3.0 7.0 0.00 0.00 0.00 79 986.5
20260509142004 57 204 3.0 9.0 0.00 0.00 0.00 78 986.5
20260509141004 57 195 2.0 8.0 0.00 0.00 0.00 80 986.8
20260509135004 56 1 2.0 7.0 0.00 0.00 0.00 82 987.0
20260509134004 56 189 3.0 6.0 0.00 0.00 0.00 82 986.9
20260509130005 55 103 2.0 6.0 0.00 0.00 0.00 82 986.8
20260509123005 53 304 0.0 3.0 0.00 0.00 0.00 85 987.1
20260509122006 52 281 1.0 2.0 0.00 0.00 0.00 86 987.3
20260509121004 51 297 1.0 2.0 0.00 0.00 0.00 86 987.2
20260509115004 50 0 1.0 2.0 0.00 0.00 0.00 88 987.3
20260509113004 48 337 1.0 1.0 0.00 0.01 0.00 88 987.3
20260509111007 47 337 0.0 1.0 0.00 0.03 0.00 89 987.5
20260509105004 45 335 0.0 1.0 0.00 0.05 0.00 89 987.6
20260509104004 44 335 0.0 0.0 0.00 0.05 0.00 90 987.6
20260509103004 43 335 0.0 0.0 0.00 0.05 0.00 89 987.5
20260509102004 43 335 0.0 0.0 0.00 0.05 0.00 89 987.5
20260509101004 43 335 0.0 0.0 0.00 0.05 0.00 88 987.3
20260509100005 44 335 0.0 0.0 0.00 0.06 0.00 87 987.4
20260509093005 44 335 0.0 0.0 0.00 0.07 0.00 84 987.4
20260509091004 45 335 0.0 1.0 0.00 0.07 0.00 83 987.5
20260509090004 45 335 0.0 1.0 0.00 0.07 0.00 83 987.5
20260509085004 45 335 0.0 1.0 0.00 0.07 0.00 82 987.5
20260509084005 45 335 0.0 0.0 0.00 0.07 0.00 81 987.7
20260509083004 45 335 0.0 0.0 0.00 0.07 0.00 80 987.7
20260509082004 46 335 0.0 1.0 0.00 0.07 0.00 78 987.5
20260509081005 45 335 0.0 1.0 0.00 0.07 0.00 77 987.6
20260509080005 45 333 0.0 2.0 0.00 0.07 0.00 77 987.8
20260509075005 45 331 0.0 0.0 0.00 0.07 0.00 76 987.9
20260509074004 44 331 0.0 1.0 0.00 0.07 0.00 75 987.8
20260509071004 44 328 0.0 1.0 0.00 0.07 0.00 73 988.3
20260509070004 44 328 0.0 0.0 0.00 0.07 0.00 72 988.1
20260509065005 44 328 0.0 1.0 0.00 0.07 0.00 71 988.1
20260509064005 44 328 0.0 1.0 0.00 0.07 0.00 71 988.4
20260509063005 44 328 0.0 1.0 0.00 0.07 0.00 70 988.5
20260509062005 45 328 0.0 1.0 0.00 0.07 0.00 68 988.8
20260509060005 44 327 0.0 1.0 0.00 0.07 0.00 69 988.9
20260509055004 44 327 0.0 1.0 0.00 0.07 0.00 67 989.1
20260509053004 45 328 0.0 0.0 0.00 0.07 0.00 66 989.3
20260509052004 45 327 0.0 2.0 0.00 0.07 0.00 65 989.3
20260509051005 46 334 0.0 2.0 0.00 0.07 0.00 63 989.3
20260509050004 45 323 0.0 1.0 0.00 0.07 0.00 65 989.5
20260509045004 44 322 0.0 0.0 0.00 0.07 0.00 65 989.5
20260509044004 44 322 0.0 0.0 0.00 0.07 0.00 65 989.6
20260509043005 44 322 0.0 0.0 0.00 0.07 0.00 63 989.8
20260509042004 45 323 0.0 0.0 0.00 0.07 0.00 62 989.9
20260509040004 46 321 1.0 1.0 0.00 0.07 0.00 60 989.6
20260509035004 44 269 0.0 1.0 0.00 0.07 0.07 62 990.1
20260509033006 42 269 0.0 0.0 0.00 0.07 0.07 66 990.2
20260509031005 43 269 0.0 0.0 0.00 0.07 0.07 61 990.3
20260509030004 44 269 0.0 0.0 0.00 0.07 0.07 61 990.3
20260509025004 44 269 0.0 0.0 0.00 0.07 0.07 58 990.5
20260509023006 45 269 0.0 0.0 0.00 0.07 0.07 55 990.4
20260509021005 46 269 0.0 0.0 0.00 0.07 0.07 53 990.6
20260509020004 46 269 0.0 0.0 0.00 0.07 0.07 48 990.4
20260509015005 46 269 0.0 0.0 0.00 0.07 0.07 45 990.1
20260509014005 47 269 0.0 0.0 0.00 0.08 0.07 46 990.2
20260509013004 47 269 0.0 0.0 0.00 0.09 0.07 46 990.2
20260509012004 48 269 0.0 0.0 0.00 0.09 0.07 45 990.0
20260509011005 48 269 0.0 0.0 0.00 0.10 0.07 39 990.1
20260509010004 49 269 0.0 0.0 0.00 0.12 0.07 41 990.3
20260509005004 50 269 0.0 1.0 0.00 0.13 0.07 39 990.2
20260509004004 51 270 1.0 2.0 0.00 0.13 0.07 37 990.2
20260509003004 51 272 1.0 2.0 0.00 0.13 0.07 36 990.1
20260509002004 52 277 0.0 2.0 0.00 0.13 0.07 36 989.8
20260509001003 53 283 1.0 2.0 0.00 0.13 0.07 35 989.9
20260508235005 54 282 1.0 5.0 0.00 0.13 0.07 32 990.0
20260508234004 54 268 1.0 5.0 0.00 0.13 0.07 32 989.8
20260508233005 54 266 2.0 5.0 0.00 0.13 0.07 32 989.9
20260508232004 55 246 2.0 5.0 0.00 0.13 0.07 29 989.8
20260508231004 56 270 2.0 7.0 0.00 0.13 0.07 29 990.0
20260508225004 55 239 2.0 5.0 0.00 0.13 0.07 35 989.6
20260508224004 55 276 2.0 6.0 0.00 0.13 0.07 36 989.9
20260508223004 56 260 2.0 7.0 0.00 0.13 0.07 37 990.2
20260508222005 56 195 4.0 7.0 0.00 0.13 0.07 36 990.0
20260508220006 56 204 2.0 8.0 0.00 0.13 0.07 36 990.1
20260508215005 56 242 3.0 7.0 0.00 0.13 0.07 35 989.9
20260508214004 56 165 3.0 6.0 0.00 0.13 0.07 36 990.1
20260508213004 55 254 2.0 7.0 0.00 0.13 0.07 38 990.1
20260508212004 55 143 3.0 7.0 0.00 0.13 0.07 39 990.1
20260508211005 55 252 2.0 6.0 0.00 0.13 0.07 38 990.1
20260508205007 56 121 3.0 8.0 0.00 0.13 0.07 37 990.1
20260508204004 56 235 3.0 7.0 0.00 0.13 0.07 37 990.3
20260508203004 56 113 3.0 8.0 0.00 0.13 0.07 39 990.2
20260508202004 56 286 1.0 7.0 0.00 0.13 0.07 39 990.4
20260508201006 55 120 2.0 9.0 0.00 0.13 0.07 40 990.6
20260508200004 56 129 3.0 8.0 0.00 0.13 0.07 40 990.7
20260508195004 56 238 3.0 6.0 0.00 0.13 0.07 41 990.7
20260508194004 56 227 3.0 7.0 0.00 0.13 0.07 43 990.9
20260508193004 56 225 3.0 6.0 0.00 0.13 0.07 45 991.0
20260508192004 56 231 1.0 7.0 0.00 0.13 0.07 48 991.1
20260508191004 55 221 2.0 8.0 0.00 0.13 0.07 51 991.3
20260508190004 55 123 3.0 7.0 0.00 0.13 0.07 51 991.5
20260508185004 55 302 1.0 6.0 0.00 0.13 0.07 54 991.4
20260508184004 55 250 3.0 9.0 0.00 0.13 0.07 52 991.6
20260508183004 54 147 4.0 8.0 0.00 0.13 0.07 54 991.7
20260508182004 55 312 1.0 10.0 0.00 0.13 0.07 55 991.7
20260508180004 55 259 1.0 6.0 0.00 0.13 0.07 55 991.7
20260508175004 54 281 2.0 8.0 0.00 0.13 0.07 56 991.6
20260508174004 54 255 1.0 8.0 0.00 0.13 0.07 58 991.6
20260508173005 54 265 3.0 9.0 0.00 0.13 0.07 56 991.8
20260508172004 53 210 2.0 7.0 0.00 0.13 0.07 58 991.8
20260508171004 53 194 2.0 8.0 0.00 0.13 0.07 57 992.0
20260508170005 54 228 3.0 10.0 0.00 0.13 0.07 57 991.9
20260508164003 54 284 1.0 8.0 0.00 0.13 0.07 55 992.0
20260508163004 52 261 1.0 8.0 0.00 0.13 0.07 57 992.1
20260508162004 51 244 2.0 6.0 0.00 0.13 0.07 66 992.2
20260508161005 52 225 3.0 7.0 0.00 0.13 0.07 62 992.4
20260508160004 51 280 1.0 7.0 0.00 0.13 0.07 60 992.3
20260508154005 51 266 2.0 7.0 0.00 0.13 0.07 66 992.4